Location: Reutlingen
(48.4911°N, 9.2587°E)
Time: 20:41:22
(UTC+01:00)

N. Korean satellite - Visible Passes

Search period start: 17 February 2018 00:00
Search period end: 27 February 2018 00:00
Orbit: 459 x 514 km, 97.2° (Epoch: 17 February)

Date Brightness Start Highest point End Pass type
(mag) Time Alt. Az. Time Alt. Az. Time Alt. Az.
17 Feb 9.6 06:21:03 10° NE 06:23:53 21° E 06:26:45 10° SE visible
17 Feb 7.9 18:33:47 10° S 18:37:05 43° W 18:40:26 10° NNW visible
18 Feb 10.3 05:58:27 10° ENE 05:59:57 12° E 06:01:29 10° ESE visible
19 Feb 10.1 19:21:42 10° WSW 19:23:24 13° W 19:25:08 10° WNW visible
20 Feb 8.4 06:42:52 10° NNE 06:46:18 38° E 06:49:46 10° SSE visible
20 Feb 9.2 18:56:38 10° SSW 18:59:28 24° W 19:02:21 10° NW visible
21 Feb 9.7 06:19:35 10° NE 06:22:26 21° E 06:25:19 10° SE visible
21 Feb 7.9 18:32:16 10° S 18:35:36 45° W 18:38:59 10° NNW visible
22 Feb 10.4 05:57:01 10° ENE 05:58:30 12° E 05:59:59 10° ESE visible
23 Feb 10.1 19:20:04 10° WSW 19:21:54 14° W 19:23:45 10° WNW visible
24 Feb 8.5 06:41:22 10° NNE 06:44:49 37° E 06:48:18 10° SSE visible
24 Feb 9.2 18:55:02 10° SSW 18:57:56 25° W 19:00:54 10° NW visible
25 Feb 9.8 06:18:05 10° NE 06:20:57 21° E 06:23:49 10° SE visible
25 Feb 7.8 18:30:43 10° S 18:34:04 46° W 18:37:30 10° NNW visible
26 Feb 10.5 05:55:33 10° ENE 05:56:58 12° E 05:58:24 10° ESE visible
